Regional Weather Roundup
Issued by NWS

Home | Current Version | Previous Version | Graphics & Text | Print | Product List | Glossary On
Versions: 1 2 3 4 5 6 7 8 9 10 11 12 13 14 15 16 17 18 19 20 21 22 23 24 25 26 27 28 29 30 31 32 33 34 35 36 37 38 39 40 41 42 43 44 45 46 47 48 49 50
981
ASUS45 KBOU 230310
RWRCO

WEATHER ROUNDUP FOR COLORADO
NATIONAL WEATHER SERVICE DENVER/BOULDER CO
800 PM MST THU FEB 22 2018

NOTE: "FAIR" INDICATES FEW OR NO CLOUDS BELOW 12000 FEET WITH NO
SIGNIFICANT WEATHER AND/OR OBSTRUCTIONS TO VISIBILITY.

COZ001>005-013-030-031-230400-
...NORTHWEST COLORADO...

CITY           SKY/WX    TMP DP  RH WIND       PRES   REMARKS
CRAIG          LGT SNOW  22  19  89 E3        29.97S VSB 3/4
HAYDEN         LGT SNOW  19  18  93 CALM      29.97S FOG
MEEKER         CLOUDY    22  19  89 CALM      29.95S
RANGELY        CLOUDY    24  20  82 E5        29.97S WCI  18
RABBIT EARS PA LGT SNOW   9   7  92 SW7       29.83S VSB 1   WCI  -3
STEAMBOAT SPGS CLOUDY    19  17  95 CALM      29.94S VSB 1
WALDEN         MOCLDY    10   7  85 SE6       29.90S WCI   1
$$

COZ006>008-011-230400-
...WEST CENTRAL VALLEYS...

CITY           SKY/WX    TMP DP  RH WIND       PRES   REMARKS
GRAND JUNCTION CLOUDY    29  28  96 S6        29.99R WCI  23
MONTROSE       CLOUDY    32  14  47 SW5       30.00R WCI  27
EAGLE          FLURRIES  23  17  78 E3        29.98R
RIFLE          LGT SNOW  27  25  92 CALM      29.99S FOG
DELTA          MOCLDY    34  19  53 S3        30.00R
NUCLA          CLOUDY    30  12  47 W3        30.00S
$$

COZ017>023-064>068-230400-
...SOUTHWEST COLORADO...

CITY           SKY/WX    TMP DP  RH WIND       PRES   REMARKS
DURANGO        CLOUDY    25  17  72 NE6       30.00R WCI  18
CORTEZ         FAIR      23   6  48 SE5       29.99R WCI  17
PAGOSA SPRINGS CLOUDY    20  13  73 CALM      30.02R
TELLURIDE      CLOUDY    19   8  62 S5        29.95R WCI  12
WOLF CREEK PAS CLOUDY     5   3  92 S23G32    29.92S WCI -17
$$

COZ009-010-012-014-032>034-037-058>063-230400-
...CENTRAL COLORADO...

CITY           SKY/WX    TMP DP  RH WIND       PRES   REMARKS
ASPEN          MOCLDY    17  10  74 SW6       29.90S WCI   9
BUENA VISTA    FAIR      22   6  50 W14       29.93R WCI  10
COPPER MTN     LGT SNOW  10  -6  48 S14G28    29.83R WCI  -5
BERTHOUD PASS  FAIR       1  -9  60 W10G21    29.81S WCI -14
COTTONWOOD PAS CLOUDY    21  12  68 W7        29.90R WCI  13
GUNNISON       CLOUDY    21  11  65 SE7       29.95R WCI  12
GRANBY         MOCLDY    19   8  64 CALM      29.91S
KREMMLING      FAIR      27  12  54 CALM      29.93R
LEADVILLE      FAIR       7  -5  57 CALM      29.86R
MONARCH PASS   LGT SNOW   5   3  92 SW23      29.94S WCI -17
SALIDA         FAIR      25  12  57 SW8       30.02R WCI  17
SUNLIGHT       FLURRIES   9   5  85 SW12G23   29.89S WCI  -6
WILKERSON PASS FAIR       9   1  72 SW12G20   29.88R WCI  -6
$$

COZ069>075-230400-
...SAN LUIS VALLEY/SANGRE DE CRISTO MOUNTAINS...

CITY           SKY/WX    TMP DP  RH WIND       PRES   REMARKS
ALAMOSA        FAIR      18  11  74 S9        30.00R WCI   7
DEL NORTE      FAIR      18   9  67 SW5       29.98R WCI  11
LA VETA PASS   CLOUDY    14   9  79 S22G33    30.03R WCI  -4
SAGUACHE       FAIR      19   3  49 SW9       29.97  WCI   9
$$

COZ035-036-038>040-230400-
...NORTHERN COLORADO FRONT RANGE...

CITY           SKY/WX    TMP DP  RH WIND       PRES   REMARKS
DENVER INTL AP LGT SNOW  21  17  84 NW6       30.02R FOG     WCI  13
AURORA         LGT SNOW  21  21 100 W3        30.01R FOG
FRONT RANGE AP LGT SNOW  21  19  93 NW3       30.01S
ERIE MUNI ARPT CLOUDY    23  20  89 W3        30.08S FOG
BOULDER MUN AP FAIR      23  18  80 CALM      30.02S
CENTENNIAL     LGT SNOW  21  19  92 NW8       30.00R FOG     WCI  11
BROOMFIELD     FLURRIES  23  19  86 VRB3      30.01R
FORT COLLINS   FAIR      21  15  78 SE3       30.04R
LONGMONT       FAIR      19  13  77 CALM      30.05S
$$

COZ041-046-047-076>085-087-088-230400-
...PIKES PEAK/PALMER DIVIDE AND SOUTHERN FOOTHILLS...

CITY           SKY/WX    TMP DP  RH WIND       PRES   REMARKS
COLO. SPRINGS  FAIR      24  19  81 N9        29.95R WCI  14
A. F. ACADEMY  FAIR      20  17  87 N8        29.95R WCI  11
SCHRIEVER AFB  NOT AVBL
CHEYENNE MTN   FAIR      24  18  77 NW5       29.89R WCI  19
ELLICOTT         N/A    N/A N/A N/A NE8       29.95R
FALCON         FAIR      20  19  93 N7        29.95R WCI  11
FORT CARSON    FAIR      25  19  78 N12       29.95R WCI  14
LIMON          FAIR      16  15  96 N7        30.00R FOG     WCI   6
MONUMENT HILL  CLOUDY    18  16  93 NW6       29.97R FOG     WCI   9
CANON CITY     CLEAR     37   7  28 SW18      29.94R
WALSENBURG     NOT AVBL
TRINIDAD       FAIR      30   5  34 SW13      29.99R WCI  20
$$

COZ042>045-048>051-090-091-230400-
...NORTHEAST COLORADO...

CITY           SKY/WX    TMP DP  RH WIND       PRES   REMARKS
GREELEY ARPT   FAIR      20  17  88 W3        30.06R
AKRON          CLOUDY    21  18  88 N3        30.03R
BURLINGTON     FAIR      19  16  88 E9        30.04R WCI   8
WRAY           MOCLDY    23  21  93 E3        30.07R
YUMA           CLOUDY    23  19  86 N5        30.05R WCI  17
STERLING       CLOUDY    23  19  86 CALM      30.05R
HOLYOKE        FAIR      25  21  86 E3        30.07R
FORT MORGAN    CLOUDY    26  16  68 CALM      30.04S
$$

COZ086-089-092>099-230400-
...SOUTHEAST COLORADO...

CITY           SKY/WX    TMP DP  RH WIND       PRES   REMARKS
PUEBLO         FAIR      31  17  56 N13       29.95R WCI  21
LA JUNTA       FAIR      32  20  61 N5        29.98R WCI  27
LAMAR          FAIR      31  20  63 E10       29.99R WCI  22
SPRINGFIELD      N/A     29  10  45 SW10      29.98R WCI  20
$$




USA.gov is the U.S. government's official web portal to all federal, state and local government web resources and services.